Year,Month,Day,Hour,Minute,Value (Times are PST for temperature in C)
2020,03,26,00,00,7.20
2020,03,26,00,01,7.20
2020,03,26,00,02,7.20
2020,03,26,00,03,7.20
2020,03,26,00,04,7.20
2020,03,26,00,05,7.20
2020,03,26,00,06,7.20
2020,03,26,00,07,7.20
2020,03,26,00,08,7.20
2020,03,26,00,09,7.20
2020,03,26,00,10,7.20
2020,03,26,00,11,7.20
2020,03,26,00,12,7.20
2020,03,26,00,13,7.20
2020,03,26,00,14,7.10
2020,03,26,00,15,7.10
2020,03,26,00,16,7.10
2020,03,26,00,17,7.10
2020,03,26,00,18,7.10
2020,03,26,00,19,7.10
2020,03,26,00,20,7.10
2020,03,26,00,21,7.10
2020,03,26,00,22,7.10
2020,03,26,00,23,7.10
2020,03,26,00,24,7.10
2020,03,26,00,25,7.10
2020,03,26,00,26,7.10
2020,03,26,00,27,7.10
2020,03,26,00,28,7.10
2020,03,26,00,29,7.00
2020,03,26,00,30,7.00
2020,03,26,00,31,7.00
2020,03,26,00,32,7.00
2020,03,26,00,33,7.00
2020,03,26,00,34,7.00
2020,03,26,00,35,7.00
2020,03,26,00,36,7.00
2020,03,26,00,37,7.00
2020,03,26,00,38,7.00
2020,03,26,00,39,7.00
2020,03,26,00,40,7.00
2020,03,26,00,41,7.00
2020,03,26,00,42,6.90
2020,03,26,00,43,6.90
2020,03,26,00,44,6.90
2020,03,26,00,45,6.90
2020,03,26,00,46,6.90
2020,03,26,00,47,6.90
2020,03,26,00,48,6.90
2020,03,26,00,49,6.90
2020,03,26,00,50,6.90
2020,03,26,00,51,6.90
2020,03,26,00,52,6.90
2020,03,26,00,53,6.90
2020,03,26,00,54,6.90
2020,03,26,00,55,6.90
2020,03,26,00,56,6.90
2020,03,26,00,57,6.90
2020,03,26,00,58,6.90
2020,03,26,00,59,6.80
2020,03,26,01,00,6.80
2020,03,26,01,01,6.80
2020,03,26,01,02,6.80
2020,03,26,01,03,6.80
2020,03,26,01,04,6.80
2020,03,26,01,05,6.80
2020,03,26,01,06,6.80
2020,03,26,01,07,6.80
2020,03,26,01,08,6.80
2020,03,26,01,09,6.80
2020,03,26,01,10,6.80
2020,03,26,01,11,6.80
2020,03,26,01,12,6.80
2020,03,26,01,13,6.80
2020,03,26,01,14,6.80
2020,03,26,01,15,6.80
2020,03,26,01,16,6.80
2020,03,26,01,17,6.80
2020,03,26,01,18,6.80
2020,03,26,01,19,6.80
2020,03,26,01,20,6.80
2020,03,26,01,21,6.80
2020,03,26,01,22,6.80
2020,03,26,01,23,6.80
2020,03,26,01,24,6.80
2020,03,26,01,25,6.80
2020,03,26,01,26,6.70
2020,03,26,01,27,6.70
2020,03,26,01,28,6.70
2020,03,26,01,29,6.70
2020,03,26,01,30,6.70
2020,03,26,01,31,6.70
2020,03,26,01,32,6.70
2020,03,26,01,33,6.70
2020,03,26,01,34,6.70
2020,03,26,01,35,6.70
2020,03,26,01,36,6.70
2020,03,26,01,37,6.70
2020,03,26,01,38,6.70
2020,03,26,01,39,6.70
2020,03,26,01,40,6.70
2020,03,26,01,41,6.70
2020,03,26,01,42,6.70
2020,03,26,01,43,6.70
2020,03,26,01,44,6.70
2020,03,26,01,45,6.70
2020,03,26,01,46,6.70
2020,03,26,01,47,6.70
2020,03,26,01,48,6.70
2020,03,26,01,49,6.70
2020,03,26,01,50,6.70
2020,03,26,01,51,6.70
2020,03,26,01,52,6.70
2020,03,26,01,53,6.80
2020,03,26,01,54,6.80
2020,03,26,01,55,6.80
2020,03,26,01,56,6.80
2020,03,26,01,57,6.80
2020,03,26,01,58,6.80
2020,03,26,01,59,6.80
2020,03,26,02,00,6.80
2020,03,26,02,01,6.80
2020,03,26,02,02,6.80
2020,03,26,02,03,6.80
2020,03,26,02,04,6.80
2020,03,26,02,05,6.70
2020,03,26,02,06,6.70
2020,03,26,02,07,6.70
2020,03,26,02,08,6.70
2020,03,26,02,09,6.70
2020,03,26,02,10,6.70
2020,03,26,02,11,6.70
2020,03,26,02,12,6.70
2020,03,26,02,13,6.70
2020,03,26,02,14,6.70
2020,03,26,02,15,6.70
2020,03,26,02,16,6.70
2020,03,26,02,17,6.70
2020,03,26,02,18,6.70
2020,03,26,02,19,6.70
2020,03,26,02,20,6.70
2020,03,26,02,21,6.70
2020,03,26,02,22,6.70
2020,03,26,02,23,6.70
2020,03,26,02,24,6.70
2020,03,26,02,25,6.70
2020,03,26,02,26,6.70
2020,03,26,02,27,6.70
2020,03,26,02,28,6.70
2020,03,26,02,29,6.70
2020,03,26,02,30,6.70
2020,03,26,02,31,6.70
2020,03,26,02,32,6.60
2020,03,26,02,33,6.60
2020,03,26,02,34,6.60
2020,03,26,02,35,6.60
2020,03,26,02,36,6.60
2020,03,26,02,37,6.60
2020,03,26,02,38,6.60
2020,03,26,02,39,6.60
2020,03,26,02,40,6.60
2020,03,26,02,41,6.60
2020,03,26,02,42,6.60
2020,03,26,02,43,6.60
2020,03,26,02,44,6.60
2020,03,26,02,45,6.60
2020,03,26,02,46,6.60
2020,03,26,02,47,6.60
2020,03,26,02,48,6.60
2020,03,26,02,49,6.50
2020,03,26,02,50,6.50
2020,03,26,02,51,6.50
2020,03,26,02,52,6.50
2020,03,26,02,53,6.50
2020,03,26,02,54,6.50
2020,03,26,02,55,6.50
2020,03,26,02,56,6.50
2020,03,26,02,57,6.50
2020,03,26,02,58,6.50
2020,03,26,02,59,6.50
2020,03,26,03,00,6.50
2020,03,26,03,01,6.50
2020,03,26,03,02,6.50
2020,03,26,03,03,6.50
2020,03,26,03,04,6.50
2020,03,26,03,05,6.50
2020,03,26,03,06,6.50
2020,03,26,03,07,6.50
2020,03,26,03,08,6.50
2020,03,26,03,09,6.50
2020,03,26,03,10,6.50
2020,03,26,03,11,6.50
2020,03,26,03,12,6.50
2020,03,26,03,13,6.40
2020,03,26,03,14,6.40
2020,03,26,03,15,6.40
2020,03,26,03,16,6.40
2020,03,26,03,17,6.40
2020,03,26,03,18,6.40
2020,03,26,03,19,6.40
2020,03,26,03,20,6.40
2020,03,26,03,21,6.40
2020,03,26,03,22,6.40
2020,03,26,03,23,6.40
2020,03,26,03,24,6.40
2020,03,26,03,25,6.40
2020,03,26,03,26,6.40
2020,03,26,03,27,6.40
2020,03,26,03,28,6.40
2020,03,26,03,29,6.40
2020,03,26,03,30,6.40
2020,03,26,03,31,6.40
2020,03,26,03,32,6.40
2020,03,26,03,33,6.40
2020,03,26,03,34,6.40
2020,03,26,03,35,6.40
2020,03,26,03,36,6.40
2020,03,26,03,37,6.40
2020,03,26,03,38,6.40
2020,03,26,03,39,6.40
2020,03,26,03,40,6.40
2020,03,26,03,41,6.40
2020,03,26,03,42,6.40
2020,03,26,03,43,6.40
2020,03,26,03,44,6.40
2020,03,26,03,45,6.40
2020,03,26,03,46,6.40
2020,03,26,03,47,6.40
2020,03,26,03,48,6.40
2020,03,26,03,49,6.40
2020,03,26,03,50,6.40
2020,03,26,03,51,6.40
2020,03,26,03,52,6.40
2020,03,26,03,53,6.40
2020,03,26,03,54,6.40
2020,03,26,03,55,6.40
2020,03,26,03,56,6.40
2020,03,26,03,57,6.40
2020,03,26,03,58,6.40
2020,03,26,03,59,6.40
2020,03,26,04,00,6.40
2020,03,26,04,01,6.40
2020,03,26,04,02,6.40
2020,03,26,04,03,6.40
2020,03,26,04,04,6.40
2020,03,26,04,05,6.40
2020,03,26,04,06,6.40
2020,03,26,04,07,6.40
2020,03,26,04,08,6.40
2020,03,26,04,09,6.40
2020,03,26,04,10,6.40
2020,03,26,04,11,6.40
2020,03,26,04,12,6.40
2020,03,26,04,13,6.40
2020,03,26,04,14,6.40
2020,03,26,04,15,6.40
2020,03,26,04,16,6.40
2020,03,26,04,17,6.40
2020,03,26,04,18,6.40
2020,03,26,04,19,6.40
2020,03,26,04,20,6.40
2020,03,26,04,21,6.40
2020,03,26,04,22,6.40
2020,03,26,04,23,6.40
2020,03,26,04,24,6.40
2020,03,26,04,25,6.40
2020,03,26,04,26,6.40
2020,03,26,04,27,6.40
2020,03,26,04,28,6.40
2020,03,26,04,29,6.40
2020,03,26,04,30,6.40
2020,03,26,04,31,6.40
2020,03,26,04,32,6.40
2020,03,26,04,33,6.40
2020,03,26,04,34,6.40
2020,03,26,04,35,6.40
2020,03,26,04,36,6.30
2020,03,26,04,37,6.30
2020,03,26,04,38,6.30
2020,03,26,04,39,6.30
2020,03,26,04,40,6.30
2020,03,26,04,41,6.30
2020,03,26,04,42,6.30
2020,03,26,04,43,6.30
2020,03,26,04,44,6.30
2020,03,26,04,45,6.30
2020,03,26,04,46,6.30
2020,03,26,04,47,6.30
2020,03,26,04,48,6.30
2020,03,26,04,49,6.30
2020,03,26,04,50,6.30
2020,03,26,04,51,6.30
2020,03,26,04,52,6.30
2020,03,26,04,53,6.30
2020,03,26,04,54,6.30
2020,03,26,04,55,6.30
2020,03,26,04,56,6.30
2020,03,26,04,57,6.30
2020,03,26,04,58,6.30
2020,03,26,04,59,6.30
2020,03,26,05,00,6.30
2020,03,26,05,01,6.30
2020,03,26,05,02,6.30
2020,03,26,05,03,6.30
2020,03,26,05,04,6.30
2020,03,26,05,05,6.30
2020,03,26,05,06,6.30
2020,03,26,05,07,6.30
2020,03,26,05,08,6.30
2020,03,26,05,09,6.30
2020,03,26,05,10,6.30
2020,03,26,05,11,6.30
2020,03,26,05,12,6.30
2020,03,26,05,13,6.30
2020,03,26,05,14,6.30
2020,03,26,05,15,6.30
2020,03,26,05,16,6.30
2020,03,26,05,17,6.30
2020,03,26,05,18,6.30
2020,03,26,05,19,6.30
2020,03,26,05,20,6.30
2020,03,26,05,21,6.30
2020,03,26,05,22,6.30
2020,03,26,05,23,6.20
2020,03,26,05,24,6.20
2020,03,26,05,25,6.20
2020,03,26,05,26,6.20
2020,03,26,05,27,6.20
2020,03,26,05,28,6.20
2020,03,26,05,29,6.20
2020,03,26,05,30,6.20
2020,03,26,05,31,6.20
2020,03,26,05,32,6.20
2020,03,26,08,38,6.80
2020,03,26,08,39,6.80
2020,03,26,08,40,6.80
2020,03,26,08,41,6.80
2020,03,26,08,42,6.80
2020,03,26,08,43,6.80
2020,03,26,08,44,6.90
2020,03,26,08,45,6.80
2020,03,26,08,46,6.90
2020,03,26,08,47,6.90
2020,03,26,08,48,6.90
2020,03,26,08,49,6.90
2020,03,26,08,50,6.90
2020,03,26,08,51,7.00
2020,03,26,08,52,7.00
2020,03,26,08,53,7.00
2020,03,26,08,54,7.00
2020,03,26,08,55,6.90
2020,03,26,08,56,6.90
2020,03,26,08,57,6.90
2020,03,26,08,58,6.90
2020,03,26,08,59,6.90
2020,03,26,09,00,6.90
2020,03,26,09,01,6.80
2020,03,26,09,02,6.80
2020,03,26,09,03,6.90
2020,03,26,09,04,6.90
2020,03,26,09,05,6.90
2020,03,26,09,06,6.90
2020,03,26,09,07,6.90
2020,03,26,09,08,6.90
2020,03,26,09,09,7.00
2020,03,26,09,10,7.00
2020,03,26,09,11,7.00
2020,03,26,09,12,7.00
2020,03,26,09,13,7.00
2020,03,26,09,14,7.00
2020,03,26,09,15,7.10
2020,03,26,09,16,7.10
2020,03,26,09,17,7.10
2020,03,26,09,18,7.10
2020,03,26,09,19,7.10
2020,03,26,09,20,7.10
2020,03,26,09,21,7.10
2020,03,26,09,22,7.10
2020,03,26,09,23,7.10
2020,03,26,09,24,7.10
2020,03,26,09,25,7.10
2020,03,26,09,26,7.10
2020,03,26,09,27,7.10
2020,03,26,09,28,7.10
2020,03,26,09,29,7.10
2020,03,26,09,30,7.10
2020,03,26,09,31,7.10
2020,03,26,09,32,7.10
2020,03,26,09,33,7.10
2020,03,26,09,34,7.10
2020,03,26,09,35,7.10
2020,03,26,09,36,7.10
2020,03,26,09,37,7.10
2020,03,26,09,38,7.10
2020,03,26,09,39,7.10
2020,03,26,09,40,7.10
2020,03,26,09,41,7.00
2020,03,26,09,42,7.00
2020,03,26,09,43,7.00
2020,03,26,09,44,7.00
2020,03,26,09,45,7.10
2020,03,26,09,46,7.10
2020,03,26,09,47,7.10
2020,03,26,09,48,7.10
2020,03,26,09,49,7.10
2020,03,26,09,50,7.00
2020,03,26,09,51,7.00
2020,03,26,09,52,7.00
2020,03,26,09,53,7.00
2020,03,26,09,54,7.00
2020,03,26,09,55,7.00
2020,03,26,09,56,7.00
2020,03,26,09,57,7.00
2020,03,26,09,58,7.00
2020,03,26,09,59,7.10
2020,03,26,10,00,7.10
2020,03,26,10,01,7.10
2020,03,26,10,02,7.10
2020,03,26,10,03,7.10
2020,03,26,10,04,7.10
2020,03,26,10,05,7.10
2020,03,26,10,06,7.10
2020,03,26,10,07,7.10
2020,03,26,10,08,7.10
2020,03,26,10,09,7.10
2020,03,26,10,10,7.10
2020,03,26,10,11,7.10
2020,03,26,10,12,7.10
2020,03,26,10,13,7.10
2020,03,26,10,14,7.10
2020,03,26,10,15,7.10
2020,03,26,10,16,7.10
2020,03,26,10,17,7.10
2020,03,26,10,18,7.10
2020,03,26,10,19,7.20
2020,03,26,10,20,7.20
2020,03,26,10,21,7.20
2020,03,26,10,22,7.20
2020,03,26,10,23,7.30
2020,03,26,10,24,7.30
2020,03,26,10,25,7.30
2020,03,26,10,26,7.30
2020,03,26,10,27,7.40
2020,03,26,10,28,7.40
2020,03,26,10,29,7.40
2020,03,26,10,30,7.50
2020,03,26,10,31,7.50
2020,03,26,10,32,7.50
2020,03,26,10,33,7.50
2020,03,26,10,34,7.60
2020,03,26,10,35,7.60
2020,03,26,10,36,7.60
2020,03,26,10,37,7.60
2020,03,26,10,38,7.60
2020,03,26,10,39,7.60
2020,03,26,10,40,7.70
2020,03,26,10,41,7.60
2020,03,26,10,42,7.60
2020,03,26,10,43,7.70
2020,03,26,10,44,7.70
2020,03,26,10,45,7.70
2020,03,26,10,46,7.70
2020,03,26,10,47,7.70
2020,03,26,10,48,7.70
2020,03,26,10,49,7.70
2020,03,26,10,50,7.70
2020,03,26,10,51,7.70
2020,03,26,10,52,7.70
2020,03,26,10,53,7.70
2020,03,26,10,54,7.80
2020,03,26,10,55,7.80
2020,03,26,10,56,7.80
2020,03,26,10,57,7.90
2020,03,26,10,58,7.90
2020,03,26,10,59,7.90
2020,03,26,11,00,7.90
2020,03,26,11,01,8.00
2020,03,26,11,02,8.00
2020,03,26,11,03,8.10
2020,03,26,11,04,8.20
2020,03,26,11,05,8.20
2020,03,26,11,06,8.30
2020,03,26,11,07,8.30
2020,03,26,11,08,8.30
2020,03,26,11,09,8.40
2020,03,26,11,10,8.40
2020,03,26,11,11,8.40
2020,03,26,11,12,8.40
2020,03,26,11,13,8.40
2020,03,26,11,14,8.40
2020,03,26,11,15,8.40
2020,03,26,11,16,8.30
2020,03,26,11,17,8.30
2020,03,26,11,18,8.30
2020,03,26,11,19,8.40
2020,03,26,11,20,8.40
2020,03,26,11,21,8.40
2020,03,26,11,22,8.40
2020,03,26,11,23,8.50
2020,03,26,11,24,8.50
2020,03,26,11,25,8.50
2020,03,26,11,26,8.60
2020,03,26,11,27,8.50
2020,03,26,11,28,8.50
2020,03,26,11,29,8.50
2020,03,26,11,30,8.50
2020,03,26,11,31,8.50
2020,03,26,11,32,8.50
2020,03,26,11,33,8.60
2020,03,26,11,34,8.60
2020,03,26,11,35,8.60
2020,03,26,11,36,8.60
2020,03,26,11,37,8.60
2020,03,26,11,38,8.50
2020,03,26,11,39,8.50
2020,03,26,11,40,8.50
2020,03,26,11,41,8.50
2020,03,26,11,42,8.50
2020,03,26,11,43,8.60
2020,03,26,11,44,8.60
2020,03,26,11,45,8.60
2020,03,26,11,46,8.50
2020,03,26,11,47,8.50
2020,03,26,11,48,8.50
2020,03,26,11,49,8.40
2020,03,26,11,50,8.40
2020,03,26,11,51,8.40
2020,03,26,11,52,8.40
2020,03,26,11,53,8.40
2020,03,26,11,54,8.40
2020,03,26,11,55,8.40
2020,03,26,11,56,8.50
2020,03,26,11,57,8.40
2020,03,26,11,58,8.40
2020,03,26,11,59,8.40
2020,03,26,12,00,8.50
2020,03,26,12,01,8.50
2020,03,26,12,02,8.50
2020,03,26,12,03,8.50
2020,03,26,12,04,8.60
2020,03,26,12,05,8.60
2020,03,26,12,06,8.50
2020,03,26,12,07,8.60
2020,03,26,12,08,8.60
2020,03,26,12,09,8.60
2020,03,26,12,10,8.50
2020,03,26,12,11,8.60
2020,03,26,12,12,8.60
2020,03,26,12,13,8.60
2020,03,26,12,14,8.60
2020,03,26,12,15,8.60
2020,03,26,12,16,8.60
2020,03,26,12,17,8.60
2020,03,26,12,18,8.60
2020,03,26,12,19,8.60
2020,03,26,12,20,8.60
2020,03,26,12,21,8.60
2020,03,26,12,22,8.60
2020,03,26,12,23,8.60
2020,03,26,12,24,8.60
2020,03,26,12,25,8.60
2020,03,26,12,26,8.60
2020,03,26,12,27,8.60
2020,03,26,12,28,8.60
2020,03,26,12,29,8.60
2020,03,26,12,30,8.60
2020,03,26,12,31,8.60
2020,03,26,12,32,8.60
2020,03,26,12,33,8.60
2020,03,26,12,34,8.60
2020,03,26,12,35,8.60
2020,03,26,12,36,8.60
2020,03,26,12,37,8.60
2020,03,26,12,38,8.60
2020,03,26,12,39,8.60
2020,03,26,12,40,8.60
2020,03,26,12,41,8.60
2020,03,26,12,42,8.50
2020,03,26,12,43,8.50
2020,03,26,12,44,8.40
2020,03,26,12,45,8.40
2020,03,26,12,46,8.40
2020,03,26,12,47,8.40
2020,03,26,12,48,8.40
2020,03,26,12,49,8.40
2020,03,26,12,50,8.30
2020,03,26,12,51,8.30
2020,03,26,12,52,8.30
2020,03,26,12,53,8.30
2020,03,26,12,54,8.30
2020,03,26,12,55,8.30
2020,03,26,12,56,8.30
2020,03,26,12,57,8.30
2020,03,26,12,58,8.30
2020,03,26,12,59,8.30
2020,03,26,13,00,8.30
2020,03,26,13,01,8.30
2020,03,26,13,02,8.30
2020,03,26,13,03,8.30
2020,03,26,13,04,8.30
2020,03,26,13,05,8.30
2020,03,26,13,06,8.30
2020,03,26,13,07,8.30
2020,03,26,13,08,8.30
2020,03,26,13,09,8.30
2020,03,26,13,10,8.30
2020,03,26,13,11,8.30
2020,03,26,13,12,8.30
2020,03,26,13,13,8.30
2020,03,26,13,14,8.30
2020,03,26,13,15,8.30
2020,03,26,13,16,8.30
2020,03,26,13,17,8.30
2020,03,26,13,18,8.30
2020,03,26,13,19,8.30
2020,03,26,13,20,8.30
2020,03,26,13,21,8.30
2020,03,26,13,22,8.30
2020,03,26,13,23,8.30
2020,03,26,13,24,8.30
2020,03,26,13,25,8.30
2020,03,26,13,26,8.20
2020,03,26,13,27,8.20
2020,03,26,13,28,8.20
2020,03,26,13,29,8.30
2020,03,26,13,30,8.30
2020,03,26,13,31,8.30
2020,03,26,13,32,8.30
2020,03,26,13,33,8.30
2020,03,26,13,34,8.30
2020,03,26,13,35,8.30
2020,03,26,13,36,8.30
2020,03,26,13,37,8.30
2020,03,26,13,38,8.30
2020,03,26,13,39,8.40
2020,03,26,13,40,8.40
2020,03,26,13,41,8.40
2020,03,26,13,42,8.40
2020,03,26,13,43,8.40
2020,03,26,13,44,8.40
2020,03,26,13,45,8.40
2020,03,26,13,46,8.40
2020,03,26,13,47,8.40
2020,03,26,13,48,8.40
2020,03,26,13,49,8.40
2020,03,26,13,50,8.50
2020,03,26,13,51,8.50
2020,03,26,13,52,8.50
2020,03,26,13,53,8.50
2020,03,26,13,54,8.50
2020,03,26,13,55,8.60
2020,03,26,13,56,8.60
2020,03,26,13,57,8.60
2020,03,26,13,58,8.60
2020,03,26,13,59,8.60
2020,03,26,14,00,8.60
2020,03,26,14,01,8.60
2020,03,26,14,02,8.60
2020,03,26,14,03,8.60
2020,03,26,14,04,8.60
2020,03,26,14,05,8.60
2020,03,26,14,06,8.60
2020,03,26,14,07,8.60
2020,03,26,14,08,8.60
2020,03,26,14,09,8.60
2020,03,26,14,10,8.60
2020,03,26,14,11,8.60
2020,03,26,14,12,8.60
2020,03,26,14,13,8.60
2020,03,26,14,14,8.60
2020,03,26,14,15,8.60
2020,03,26,14,16,8.60
2020,03,26,14,17,8.60
2020,03,26,14,18,8.60
2020,03,26,14,19,8.60
2020,03,26,14,20,8.60
2020,03,26,14,21,8.60
2020,03,26,14,22,8.60
2020,03,26,14,23,8.60
2020,03,26,14,24,8.50
2020,03,26,14,25,8.50
2020,03,26,14,26,8.50
2020,03,26,14,27,8.50
2020,03,26,14,28,8.50
2020,03,26,14,29,8.50
2020,03,26,14,30,8.50
2020,03,26,14,31,8.50
2020,03,26,14,32,8.50
2020,03,26,14,33,8.50
2020,03,26,14,34,8.40
2020,03,26,14,35,8.40
2020,03,26,14,36,8.40
2020,03,26,14,37,8.40
2020,03,26,14,38,8.40
2020,03,26,14,39,8.40
2020,03,26,14,40,8.40
2020,03,26,14,41,8.40
2020,03,26,14,42,8.40
2020,03,26,14,43,8.40
2020,03,26,14,44,8.50
2020,03,26,14,45,8.40
2020,03,26,14,46,8.40
2020,03,26,14,47,8.40
2020,03,26,14,48,8.40
2020,03,26,14,49,8.40
2020,03,26,14,50,8.40
2020,03,26,14,51,8.40
2020,03,26,14,52,8.40
2020,03,26,14,53,8.40
2020,03,26,14,54,8.40
2020,03,26,14,55,8.50
2020,03,26,14,56,8.50
2020,03,26,14,57,8.50
2020,03,26,14,58,8.50
2020,03,26,14,59,8.50
2020,03,26,15,00,8.50
2020,03,26,15,01,8.50
2020,03,26,15,02,8.50
2020,03,26,15,03,8.50
2020,03,26,15,04,8.50
2020,03,26,15,05,8.60
2020,03,26,15,06,8.60
2020,03,26,15,07,8.60
2020,03,26,15,08,8.60
2020,03,26,15,09,8.60
2020,03,26,15,10,8.60
2020,03,26,15,11,8.50
2020,03,26,15,12,8.50
2020,03,26,15,13,8.50
2020,03,26,15,14,8.50
2020,03,26,15,15,8.50
2020,03,26,15,16,8.50
2020,03,26,15,17,8.50
2020,03,26,15,18,8.50
2020,03,26,15,19,8.50
2020,03,26,15,20,8.50
2020,03,26,15,21,8.50
2020,03,26,15,22,8.50
2020,03,26,15,23,8.50
2020,03,26,15,24,8.50
2020,03,26,15,25,8.40
2020,03,26,15,26,8.40
2020,03,26,15,27,8.40
2020,03,26,15,28,8.50
2020,03,26,15,29,8.50
2020,03,26,15,30,8.40
2020,03,26,15,31,8.40
2020,03,26,15,32,8.40
2020,03,26,15,33,8.40
2020,03,26,15,34,8.40
2020,03,26,15,35,8.40
2020,03,26,15,36,8.40
2020,03,26,15,37,8.40
2020,03,26,15,38,8.30
2020,03,26,15,39,8.30
2020,03,26,15,40,8.30
2020,03,26,15,41,8.30
2020,03,26,15,42,8.30
2020,03,26,15,43,8.30
2020,03,26,15,44,8.30
2020,03,26,15,45,8.30
2020,03,26,15,46,8.30
2020,03,26,15,47,8.30
2020,03,26,15,48,8.30
2020,03,26,15,49,8.30
2020,03,26,15,50,8.30
2020,03,26,15,51,8.30
2020,03,26,15,52,8.30
2020,03,26,15,53,8.30
2020,03,26,15,54,8.30
2020,03,26,15,55,8.30
2020,03,26,15,56,8.30
2020,03,26,15,57,8.30
2020,03,26,15,58,8.30
2020,03,26,15,59,8.20
2020,03,26,16,00,8.20
2020,03,26,16,01,8.30
2020,03,26,16,02,8.30
2020,03,26,16,03,8.20
2020,03,26,16,04,8.20
2020,03,26,16,05,8.20
2020,03,26,16,06,8.20
2020,03,26,16,07,8.30
2020,03,26,16,08,8.30
2020,03,26,16,09,8.30
2020,03,26,16,10,8.30
2020,03,26,16,11,8.30
2020,03,26,16,12,8.30
2020,03,26,16,13,8.30
2020,03,26,16,14,8.30
2020,03,26,16,15,8.30
2020,03,26,16,16,8.30
2020,03,26,16,17,8.30
2020,03,26,16,18,8.30
2020,03,26,16,19,8.30
2020,03,26,16,20,8.30
2020,03,26,16,21,8.30
2020,03,26,16,22,8.30
2020,03,26,16,23,8.30
2020,03,26,16,24,8.30
2020,03,26,16,25,8.30
2020,03,26,16,26,8.30
2020,03,26,16,27,8.30
2020,03,26,16,28,8.30
2020,03,26,16,29,8.30
2020,03,26,16,30,8.30
2020,03,26,16,31,8.30
2020,03,26,16,32,8.30
2020,03,26,16,33,8.30
2020,03,26,16,34,8.30
2020,03,26,16,35,8.30
2020,03,26,16,36,8.30
2020,03,26,16,37,8.30
2020,03,26,16,38,8.40
2020,03,26,16,39,8.40
2020,03,26,16,40,8.40
2020,03,26,16,41,8.40
2020,03,26,16,42,8.40
2020,03,26,16,43,8.40
2020,03,26,16,44,8.30
2020,03,26,16,45,8.30
2020,03,26,16,46,8.30
2020,03,26,16,47,8.30
2020,03,26,16,48,8.20
2020,03,26,16,49,8.20
2020,03,26,16,50,8.20
2020,03,26,16,51,8.20
2020,03,26,16,52,8.20
2020,03,26,16,53,8.20
2020,03,26,16,54,8.20
2020,03,26,16,55,8.20
2020,03,26,16,56,8.10
2020,03,26,16,57,8.10
2020,03,26,16,58,8.10
2020,03,26,16,59,8.10
2020,03,26,17,00,8.10
2020,03,26,17,01,8.10
2020,03,26,17,02,8.10
2020,03,26,17,03,8.10
2020,03,26,17,04,8.10
2020,03,26,17,05,8.10
2020,03,26,17,06,8.00
2020,03,26,17,07,8.00
2020,03,26,17,08,8.00
2020,03,26,17,09,8.00
2020,03,26,17,10,8.00
2020,03,26,17,11,8.00
2020,03,26,17,12,8.00
2020,03,26,17,13,8.00
2020,03,26,17,14,8.00
2020,03,26,17,15,8.00
2020,03,26,17,16,8.00
2020,03,26,17,17,7.90
2020,03,26,17,18,7.90
2020,03,26,17,19,7.90
2020,03,26,17,20,7.90
2020,03,26,17,21,7.90
2020,03,26,17,22,7.90
2020,03,26,17,23,7.90
2020,03,26,17,24,7.90
2020,03,26,17,25,7.90
2020,03,26,17,26,7.90
2020,03,26,17,27,7.90
2020,03,26,17,28,7.90
2020,03,26,17,29,7.90
2020,03,26,17,30,7.90
2020,03,26,17,31,7.90
2020,03,26,17,32,7.90
2020,03,26,17,33,7.90
2020,03,26,17,34,7.90
2020,03,26,17,35,7.90
2020,03,26,17,36,7.90
2020,03,26,17,37,7.90
2020,03,26,17,38,7.90
2020,03,26,17,39,7.90
2020,03,26,17,40,7.90
2020,03,26,17,41,7.90
2020,03,26,17,42,7.90
2020,03,26,17,43,7.90
2020,03,26,17,44,7.90
2020,03,26,17,45,7.90
2020,03,26,17,46,7.80
2020,03,26,17,47,7.80
2020,03,26,17,48,7.80
2020,03,26,17,49,7.80
2020,03,26,17,50,7.80
2020,03,26,17,51,7.80
2020,03,26,17,52,7.70
2020,03,26,17,53,7.70
2020,03,26,17,54,7.70
2020,03,26,17,55,7.70
2020,03,26,17,56,7.70
2020,03,26,17,57,7.70
2020,03,26,17,58,7.70
2020,03,26,17,59,7.70
2020,03,26,18,00,7.70
2020,03,26,18,01,7.60
2020,03,26,18,02,7.60
2020,03,26,18,03,7.60
2020,03,26,18,04,7.60
2020,03,26,18,05,7.60
2020,03,26,18,06,7.60
2020,03,26,18,07,7.60
2020,03,26,18,08,7.60
2020,03,26,18,09,7.60
2020,03,26,18,10,7.60
2020,03,26,18,11,7.60
2020,03,26,18,12,7.60
2020,03,26,18,13,7.60
2020,03,26,18,14,7.60
2020,03,26,18,15,7.60
2020,03,26,18,16,7.60
2020,03,26,18,17,7.60
2020,03,26,18,18,7.60
2020,03,26,18,19,7.60
2020,03,26,18,20,7.60
2020,03,26,18,21,7.60
2020,03,26,18,22,7.60
2020,03,26,18,23,7.60
2020,03,26,18,24,7.60
2020,03,26,18,25,7.60
2020,03,26,18,26,7.60
2020,03,26,18,27,7.60
2020,03,26,18,28,7.50
2020,03,26,18,29,7.50
2020,03,26,18,30,7.50
2020,03,26,18,31,7.50
2020,03,26,18,32,7.50
2020,03,26,18,33,7.50
2020,03,26,18,34,7.50
2020,03,26,18,35,7.40
2020,03,26,18,36,7.40
2020,03,26,18,37,7.40
2020,03,26,18,38,7.40
2020,03,26,18,39,7.40
2020,03,26,18,40,7.40
2020,03,26,18,41,7.40
2020,03,26,18,42,7.40
2020,03,26,18,43,7.40
2020,03,26,18,44,7.40
2020,03,26,18,45,7.40
2020,03,26,18,46,7.40
2020,03,26,18,47,7.40
2020,03,26,18,48,7.30
2020,03,26,18,49,7.30
2020,03,26,18,50,7.30
2020,03,26,18,51,7.30
2020,03,26,18,52,7.30
2020,03,26,18,53,7.30
2020,03,26,18,54,7.30
2020,03,26,18,55,7.30
2020,03,26,18,56,7.30
2020,03,26,18,57,7.30
2020,03,26,18,58,7.30
2020,03,26,18,59,7.30
2020,03,26,19,00,7.30
2020,03,26,19,01,7.30
2020,03,26,19,02,7.30
2020,03,26,19,03,7.30
2020,03,26,19,04,7.30
2020,03,26,19,05,7.30
2020,03,26,19,06,7.30
2020,03,26,19,07,7.30
2020,03,26,19,08,7.30
2020,03,26,19,09,7.30
2020,03,26,19,10,7.30
2020,03,26,19,11,7.30
2020,03,26,19,12,7.30
2020,03,26,19,13,7.30
2020,03,26,19,14,7.30
2020,03,26,19,15,7.30
2020,03,26,19,16,7.30
2020,03,26,19,17,7.30
2020,03,26,19,18,7.30
2020,03,26,19,19,7.40
2020,03,26,19,20,7.40
2020,03,26,19,21,7.40
2020,03,26,19,22,7.40
2020,03,26,19,23,7.40
2020,03,26,19,24,7.40
2020,03,26,19,25,7.40
2020,03,26,19,26,7.40
2020,03,26,19,27,7.40
2020,03,26,19,28,7.40
2020,03,26,19,29,7.40
2020,03,26,19,30,7.40
2020,03,26,19,31,7.40
2020,03,26,19,32,7.30
2020,03,26,19,33,7.30
2020,03,26,19,34,7.30
2020,03,26,19,35,7.30
2020,03,26,19,36,7.30
2020,03,26,19,37,7.30
2020,03,26,19,38,7.30
2020,03,26,19,39,7.40
2020,03,26,19,40,7.40
2020,03,26,19,41,7.40
2020,03,26,19,42,7.40
2020,03,26,19,43,7.40
2020,03,26,19,44,7.40
2020,03,26,19,45,7.40
2020,03,26,19,46,7.40
2020,03,26,19,47,7.40
2020,03,26,19,48,7.40
2020,03,26,19,49,7.40
2020,03,26,19,50,7.40
2020,03,26,19,51,7.40
2020,03,26,19,52,7.40
2020,03,26,19,53,7.40
2020,03,26,19,54,7.40
2020,03,26,19,55,7.40
2020,03,26,19,56,7.40
2020,03,26,19,57,7.40
2020,03,26,19,58,7.40
2020,03,26,19,59,7.40
2020,03,26,20,00,7.40
2020,03,26,20,01,7.40
2020,03,26,20,02,7.40
2020,03,26,20,03,7.40
2020,03,26,20,04,7.40
2020,03,26,20,05,7.40
2020,03,26,20,06,7.40
2020,03,26,20,07,7.40
2020,03,26,20,08,7.40
2020,03,26,20,09,7.40
2020,03,26,20,10,7.40
2020,03,26,20,11,7.40
2020,03,26,20,12,7.40
2020,03,26,20,13,7.30
2020,03,26,20,14,7.40
2020,03,26,20,15,7.40
2020,03,26,20,16,7.40
2020,03,26,20,17,7.40
2020,03,26,20,18,7.40
2020,03,26,20,19,7.40
2020,03,26,20,20,7.40
2020,03,26,20,21,7.40
2020,03,26,20,22,7.40
2020,03,26,20,23,7.40
2020,03,26,20,24,7.40
2020,03,26,20,25,7.40
2020,03,26,20,26,7.30
2020,03,26,20,27,7.30
2020,03,26,20,28,7.30
2020,03,26,20,29,7.30
2020,03,26,20,30,7.30
2020,03,26,20,31,7.30
2020,03,26,20,32,7.30
2020,03,26,20,33,7.30
2020,03,26,20,34,7.30
2020,03,26,20,35,7.30
2020,03,26,20,36,7.30
2020,03,26,20,37,7.30
2020,03,26,20,38,7.30
2020,03,26,20,39,7.30
2020,03,26,20,40,7.30
2020,03,26,20,41,7.30
2020,03,26,20,42,7.30
2020,03,26,20,43,7.30
2020,03,26,20,44,7.30
2020,03,26,20,45,7.30
2020,03,26,20,46,7.30
2020,03,26,20,47,7.30
2020,03,26,20,48,7.30
2020,03,26,20,49,7.30
2020,03,26,20,50,7.30
2020,03,26,20,51,7.30
2020,03,26,20,52,7.30
2020,03,26,20,53,7.30
2020,03,26,20,54,7.30
2020,03,26,20,55,7.30
2020,03,26,20,56,7.30
2020,03,26,20,57,7.30
2020,03,26,20,58,7.30
2020,03,26,20,59,7.30
2020,03,26,21,00,7.30
2020,03,26,21,01,7.30
2020,03,26,21,02,7.30
2020,03,26,21,03,7.30
2020,03,26,21,04,7.30
2020,03,26,21,05,7.30
2020,03,26,21,06,7.30
2020,03,26,21,07,7.30
2020,03,26,21,08,7.30
2020,03,26,21,09,7.30
2020,03,26,21,10,7.30
2020,03,26,21,11,7.30